Location: Сочи
(43.6028°N, 39.7342°E)
Time: 18:38:23
(UTC+03:00)

Envisat - Visible Passes

Search period start: 14 October 2019 00:00
Search period end: 24 October 2019 00:00
Orbit: 764 x 766 km, 98.1° (Epoch: 14 October)

Date Brightness Start Highest point End Pass type
(mag) Time Alt. Az. Time Alt. Az. Time Alt. Az.
14 Oct 4.9 19:13:25 10° SSW 19:17:56 32° W 19:22:28 10° NNW visible
15 Oct 3.3 18:35:58 10° S 18:41:01 70° WSW 18:46:07 10° NNW visible
16 Oct 3.1 17:59:22 10° SSE 18:04:18 55° ENE 18:09:16 10° N visible
16 Oct 5.7 19:40:08 10° SW 19:43:39 19° W 19:47:13 10° NW visible
17 Oct 4.4 19:01:51 10° SSW 19:06:36 40° W 19:11:23 10° NNW visible
18 Oct 3.0 18:24:40 10° SSE 18:29:45 87° WSW 18:34:52 10° NNW visible
18 Oct 6.3 20:08:41 10° W 20:09:30 10° W 20:10:19 10° WNW visible
19 Oct 5.4 19:28:15 10° SW 19:32:17 24° W 19:36:21 10° NW visible
20 Oct 6.4 05:57:32 10° ENE 06:00:02 14° E 06:02:31 10° ESE visible
20 Oct 3.9 18:50:22 10° S 18:55:18 51° W 19:00:15 10° NNW visible
21 Oct 2.9 18:13:27 10° SSE 18:18:29 75° ENE 18:23:35 10° N visible
21 Oct 6.1 19:55:36 10° WSW 19:58:05 14° W 20:00:34 10° WNW visible
22 Oct 5.0 19:16:32 10° SSW 19:20:56 29° W 19:25:22 10° NW visible
23 Oct 6.7 05:47:45 10° ENE 05:48:37 10° E 05:49:29 10° E visible
23 Oct 3.5 18:38:58 10° S 18:44:00 64° WSW 18:49:04 10° NNW visible
